TimeEST,TemperatureF,Dew PointF,Humidity,Sea Level PressureIn,VisibilityMPH,Wind Direction,Wind SpeedMPH,Gust SpeedMPH,PrecipitationIn,Events,Conditions,WindDirDegrees,DateUTC
12:56 AM,33.1,27.0,78,30.40,10.0,North,5.8,-,N/A,,Mostly Cloudy,350,2012-12-13 05:56:00
1:56 AM,30.9,26.1,82,30.40,10.0,Calm,Calm,-,N/A,,Overcast,0,2012-12-13 06:56:00
2:56 AM,30.9,25.0,79,30.40,10.0,North,4.6,-,N/A,,Overcast,350,2012-12-13 07:56:00
3:56 AM,32.0,26.1,79,30.40,10.0,North,3.5,-,N/A,,Overcast,350,2012-12-13 08:56:00
4:56 AM,30.9,26.1,82,30.41,10.0,North,4.6,-,N/A,,Overcast,10,2012-12-13 09:56:00
5:56 AM,34.0,28.0,79,30.40,10.0,North,3.5,-,N/A,,Overcast,10,2012-12-13 10:56:00
6:56 AM,30.9,25.0,79,30.43,10.0,Calm,Calm,-,N/A,,Mostly Cloudy,0,2012-12-13 11:56:00
7:56 AM,32.0,26.1,79,30.44,10.0,North,3.5,-,N/A,,Mostly Cloudy,350,2012-12-13 12:56:00
8:56 AM,33.1,28.0,82,30.43,10.0,NNE,3.5,-,N/A,,Partly Cloudy,20,2012-12-13 13:56:00
9:56 AM,42.1,30.0,62,30.45,10.0,North,6.9,-,N/A,,Partly Cloudy,10,2012-12-13 14:56:00
10:56 AM,44.1,27.0,51,30.44,10.0,NE,9.2,-,N/A,,Partly Cloudy,50,2012-12-13 15:56:00
11:56 AM,45.0,25.0,46,30.40,10.0,NE,9.2,-,N/A,,Partly Cloudy,40,2012-12-13 16:56:00
12:56 PM,46.0,24.1,42,30.38,10.0,North,8.1,-,N/A,,Partly Cloudy,360,2012-12-13 17:56:00
1:56 PM,45.0,23.0,42,30.37,10.0,North,9.2,-,N/A,,Partly Cloudy,350,2012-12-13 18:56:00
2:56 PM,45.0,21.9,40,30.37,10.0,North,6.9,-,N/A,,Partly Cloudy,10,2012-12-13 19:56:00
3:56 PM,44.1,21.0,40,30.37,10.0,Calm,Calm,-,N/A,,Clear,0,2012-12-13 20:56:00
4:56 PM,37.9,24.1,57,30.37,10.0,Calm,Calm,-,N/A,,Scattered Clouds,0,2012-12-13 21:56:00
7:56 PM,30.9,21.9,69,30.35,10.0,Calm,Calm,-,N/A,,Partly Cloudy,0,2012-12-14 00:56:00
8:56 PM,30.9,23.0,72,30.35,10.0,Calm,Calm,-,N/A,,Partly Cloudy,0,2012-12-14 01:56:00
9:56 PM,28.9,23.0,78,30.33,9.0,Calm,Calm,-,N/A,,Scattered Clouds,0,2012-12-14 02:56:00
10:56 PM,28.9,23.0,78,30.32,8.0,Calm,Calm,-,N/A,,Scattered Clouds,0,2012-12-14 03:56:00
11:56 PM,28.0,23.0,81,30.31,8.0,Calm,Calm,-,N/A,,Partly Cloudy,0,2012-12-14 04:56:00